SCP
0 0 0 0 0 0 0 0 0 0 0 0 0 0 0 0 0 0 0 0 0 0 0 0 0 0 0 0 0 0 0 0 0 0 0 0 0 0 0 0 0 0 0
0 0 0 0 0 0 0 0 0 0 0 0 0 0 0 0 0 0 0 0 0 0 0 0 0 0 0 0 0 0 0 0 0 0 0 0 0 0 0 0 0 0 0
0 0 0 0 0 0 0 0 0 0 0 0 0 0 0 0 0 0 0 0 0 0 0 0 0 0 0 0 0 0 0 0 0 0 0 0 0 0 0 0 0 0 0
0 0 0 0 0 0 0 0 0 0 0 0 0 0 0 0 0 0 0 0 0 0 0 0 0 0 0 0 0 0 0 0 0 0 0 0 0 0 0 0 0 0 0
0 0 0 0 0 0 0 0 0 0 0 0 0 0 0 0 0 0 0 0 0 0 0 0 0 0 0 0 0 0 0 0 0 0 0 0 0 0 0 0 0 0 0
0 0 0 0 0 0 0 0 0 0 0 0 0 0 0 0 0 0 0 0 0 0 0 0 0 0 0 0 0 0 0 0 0 0 0 0 0 0 0 0 0 0 0
0 0 0 0 0 0 0 0 0 0 0 0 0 0 0 0 0 0 0 0 0 0 0 0 0 0 0 0 0 0 0 0 0 0 0 0 0 0 0 0 0 0 0
0 0 0 0 0 0 0 0 0 0 0 0 0 0 0 0 0 0 0 0 0 0 0 0 0 0 0 0 0 0 0 0 0 0 0 0 0 0 0 0 0 0 0
0 0 0 0 0 0 0 0 0 0 0 0 0 0 0 0 0 0 0 0 0 0 0 0 0 0 0 0 0 0 0 0 0 0 0 0 0 0 0 0 0 0 0
0 0 0 0 0 0 0 0 0 0 0 0 0 0 0 0 0 0 0 0 0 0 0 0 0 0 0 0 0 0 0 0 0 0 0 0 0 0 0 0 0 0 0
0 0 0 0 0 0 0 0 0 0 0 0 0 0 0 0 0 0 0 0 0 0 0 0 0 0 0 0 0 0 0 0 0 0 0 0 0 0 0 0 0 0 0
0 0 0 0 0 0 0 0 0 0 0 0 0 0 0 0 0 0 0 0 0 0 0 0 0 0 0 0 0 0 0 0 0 0 0 0 0 0 0 0 0 0 0
0 0 0 0 0 0 0 0 0 0 0 0 0 0 0 0 0 0 0 0 0 0 0 0 0 0 0 0 0 0 0 0 0 0 0 0 0 0 0 0 0 0 0
0 0 0 0 0 0 0 0 0 0 0 0 0 0 0 0 0 0 0 0 0 0 0 0 0 0 0 0 0 0 0 0 0 0 0 0 0 0 0 0 0 0 0
0 0 0 0 0 0 0 0 0 0 0 0 0 0 0 0 0 0 0 0 0 0 0 0 0 0 0 0 0 0 0 0 0 0 0 0 0 0 0 0 0 0 0
0 0 0 0 0 0 0 0 0 0 0 0 0 0 0 0 0 0 0 0 0 0 0 0 0 0 0 0 0 0 0 0 0 0 0 0 0 0 0 0 0 0 0
0 0 0 0 0 0 0 0 0 0 0 0 0 0 0 0 0 0 0 0 0 0 0 0 0 0 0 0 0 0 0 0 0 0 0 0 0 0 0 0 0 0 0
0 0 0 0 0 0 0 0 0 0 0 0 0 0 0 0 0 0 0 0 0 0 0 0 0 0 0 0 0 0 0 0 0 0 0 0 0 0 0 0 0 0 0
0 0 0 0 0 0 0 0 0 0 0 0 0 0 0 0 0 0 0 0 0 0 0 0 0 0 0 0 0 0 0 0 0 0 0 0 0 0 0 0 0 0 0
0 0 0 0 0 0 0 0 0 0 0 0 0 0 0 0 0 0 0 0 0 0 0 0 0 0 0 0 0 0 0 0 0 0 0 0 0 0 0 0 0 0 0
0 0 0 0 0 0 0 0 0 0 0 0 0 0 0 0 0 0 0 0 0 0 0 0 0 0 0 0 0 0 0 0 0 0 0 0 0 0 0 0 0 0 0
0 0 0 0 0 0 0 0 0 0 0 0 0 0 0 0 0 0 0 0 0 0 0 0 0 0 0 0 0 0 0 0 0 0 0 0 0 0 0 0 0 0 0
0 0 0 0 0 0 0 0 0 0 0 0 0 0 0 0 0 0 0 0 0 0 0 0 0 0 0 0 0 0 0 0 0 0 0 0 0 0 0 0 0 0 0
0 0 0 0 0 0 0 0 0 0 0 0 0 0 0 0 0 0 0 0 0 0 0 0 0 0 0 0 0 0 0 0 0 0 0 0 0 0 0 0 0 0 0
0 0 0 0 0 0 0 0 0 0 0 0 0 0 0 0 0 0 0 0 0 0 0 0 0 0 0 0 0 0 0 0 0 0 0 0 0 0 0 0 0 0 0
0 0 0 0 0 0 0 0 0 0 0 0 0 0 0 0 0 0 0 0 0 0 0 0 0 0 0 0 0 0 0 0 0 0 0 0 0 0 0 0 0 0 0
Wind_Speed
5 7 13 15 14 14 15 13 11 9 8 8 8 7 7 7 7 6 5 3 3 5 9 10 11 12 12 11 11 12 14 15 16 15 14 14 13 9 6 6 6 4 7
6 6 11 14 15 15 16 15 12 11 11 10 10 9 7 6 7 8 9 6 6 9 10 12 13 12 13 12 14 13 14 14 14 13 14 12 12 11 8 7 6 6 9
8 7 8 11 13 13 14 14 13 13 13 12 10 10 9 9 8 8 7 7 9 11 12 12 10 10 10 10 11 12 12 11 12 13 12 7 7 10 7 7 7 10 11
7 6 6 9 11 12 13 13 13 14 13 12 11 9 9 9 9 8 4 4 6 8 9 9 9 8 9 10 11 11 12 13 13 12 7 5 6 10 10 6 7 8 9
6 6 6 9 10 10 12 14 12 13 15 13 10 8 8 8 7 7 7 6 7 7 7 7 8 9 9 10 11 12 13 13 13 9 5 4 4 7 9 7 4 6 7
5 5 7 10 11 11 10 11 10 11 12 11 10 10 10 9 9 8 7 8 9 9 8 8 9 9 10 11 12 13 13 13 11 6 5 6 5 7 8 8 7 1 3
5 3 4 9 11 13 14 13 13 12 12 12 12 11 10 10 9 7 7 8 9 9 9 9 10 10 11 12 12 12 13 13 8 5 5 5 6 8 9 10 12 10 6
6 4 3 6 8 10 12 14 14 14 14 14 13 12 11 10 9 9 9 10 10 10 10 11 11 11 11 11 11 12 13 12 8 5 5 5 8 10 10 11 11 13 13
4 4 3 4 5 7 9 11 12 13 14 14 14 13 11 10 10 10 10 11 11 11 11 11 11 11 10 11 11 12 12 11 6 4 5 4 8 9 9 10 10 10 10
5 5 4 4 4 4 5 8 9 11 11 11 11 10 9 8 8 8 6 10 12 13 13 12 11 11 10 11 11 11 10 9 5 4 4 6 10 9 9 9 9 9 10
5 5 5 5 5 5 4 6 8 10 10 9 8 10 8 4 4 3 3 9 12 13 12 12 11 11 10 9 9 10 8 4 4 4 3 8 10 10 9 9 9 9 8
13 11 7 7 6 5 4 4 5 5 6 6 6 6 5 3 3 4 3 7 9 10 11 11 11 9 7 4 5 6 3 4 4 3 4 11 11 10 9 8 8 8 8
17 14 12 9 7 6 5 4 3 3 4 5 6 6 5 4 3 3 3 4 4 6 5 6 6 4 4 3 3 3 4 4 3 3 6 11 11 9 7 7 8 8 8
15 16 13 11 9 8 6 5 5 5 5 5 5 7 5 4 4 4 3 3 2 2 3 3 3 4 4 4 4 4 4 3 3 2 4 10 10 10 8 8 8 9 9
15 16 15 14 14 11 8 6 6 7 7 7 7 7 7 6 6 6 5 4 3 3 3 4 3 4 4 4 3 4 4 4 4 2 3 9 11 11 10 10 9 9 9
19 18 17 19 18 15 13 12 10 8 7 6 7 8 9 7 7 6 6 5 4 3 3 3 3 3 3 3 3 4 4 3 3 4 4 6 12 13 13 11 10 10 9
19 17 20 19 18 18 16 14 10 8 7 7 8 8 9 8 8 7 6 5 4 4 4 4 3 3 3 2 2 3 3 3 3 4 4 4 6 12 14 14 13 12 10
17 18 19 18 20 20 18 15 11 9 10 9 8 8 10 9 9 7 6 5 5 4 4 4 3 3 2 2 2 3 3 3 4 5 5 6 5 6 11 17 15 13 12
18 18 19 20 21 21 17 13 11 10 10 8 8 8 9 9 9 8 7 6 7 5 4 4 2 2 2 2 3 4 4 4 4 5 6 6 7 6 5 11 15 14 13
15 17 18 19 18 17 13 9 7 8 7 7 8 9 10 10 10 9 7 7 7 5 5 4 3 3 2 1 2 5 5 4 4 4 5 4 5 5 5 5 5 7 13
10 13 15 16 16 16 15 14 12 13 11 10 10 12 12 11 11 10 8 8 8 7 7 6 4 3 2 1 3 3 4 4 5 5 4 4 5 5 5 4 3 3 5
12 14 15 16 17 18 15 13 8 8 8 9 7 8 10 11 12 11 11 10 9 7 7 7 6 4 2 1 3 3 2 1 2 2 2 4 4 4 5 5 4 4 4
9 12 14 16 17 16 13 9 4 6 4 3 6 8 11 13 14 13 12 10 10 9 8 8 6 6 5 2 2 4 4 3 1 1 1 2 4 4 4 4 3 3 3
9 8 9 11 13 15 17 17 17 12 11 12 12 12 12 13 14 14 13 12 10 8 7 6 5 4 6 4 2 2 3 4 4 1 1 2 3 3 4 4 3 2 1
4 6 8 10 12 13 15 18 19 14 8 6 7 10 10 10 10 11 12 11 10 9 8 8 7 5 4 5 4 3 2 3 2 2 1 2 3 3 4 6 5 3 1
5 1 6 11 12 13 14 15 17 15 10 11 12 12 11 9 9 12 13 12 11 10 9 9 7 7 5 4 4 4 5 5 4 3 3 2 2 3 3 3 3 1 1
Wind_Direction
209 187 177 173 174 176 175 174 173 171 169 162 160 150 132 120 120 128 126 139 164 127 102 88 72 59 56 54 58 54 48 37 29 21 20 19 18 24 64 69 61 32 26
165 179 178 173 178 180 178 175 176 179 178 167 161 152 144 136 122 96 75 72 96 95 87 76 63 54 51 43 43 42 41 35 29 20 20 18 12 20 62 64 53 44 38
154 166 164 165 176 179 177 171 176 186 177 168 157 147 138 117 91 74 72 66 75 81 77 71 66 58 57 54 51 44 39 32 32 26 22 14 359 10 48 75 59 40 30
154 155 153 156 160 172 174 171 178 177 164 150 135 127 119 113 111 98 99 87 87 88 86 90 89 82 72 65 61 53 43 34 31 30 20 7 356 355 8 38 59 52 38
147 144 146 152 160 169 167 166 177 170 154 142 137 151 158 157 148 144 147 137 122 110 107 104 93 84 77 74 67 56 49 44 40 36 19 5 358 338 349 357 29 51 42
147 138 149 157 169 172 169 164 167 162 153 156 170 184 176 167 159 155 144 130 123 121 115 101 91 86 82 76 68 64 59 53 48 38 22 12 355 347 357 10 5 17 59
145 132 145 163 176 181 183 179 179 176 169 174 182 176 168 161 157 147 140 130 126 119 109 100 91 84 79 75 70 64 60 56 52 42 19 5 349 13 18 20 23 23 30
148 146 152 169 179 182 190 193 189 185 180 177 176 171 167 161 157 153 145 133 125 116 109 97 90 86 79 75 73 68 61 59 49 39 20 359 9 24 28 25 24 25 26
148 153 167 163 159 174 187 185 189 184 177 176 171 172 166 163 160 152 146 137 129 121 110 100 92 86 79 73 68 65 62 62 56 40 23 355 15 23 25 24 18 16 12
173 177 178 169 158 161 170 172 178 170 170 170 167 157 148 151 146 143 148 140 135 128 121 114 107 98 86 76 67 61 55 51 48 41 20 9 18 18 17 15 10 8 8
216 209 190 180 172 164 161 170 166 162 163 161 148 127 112 99 104 121 163 143 139 132 125 117 110 101 88 74 67 60 51 38 37 33 11 16 18 17 15 14 8 7 7
211 209 202 193 182 169 166 166 155 150 149 142 130 122 122 134 143 143 118 122 124 121 117 110 101 90 79 64 53 54 47 42 35 25 8 12 15 13 7 9 11 5 8
207 204 200 195 184 177 175 165 155 147 141 142 144 142 142 147 144 114 83 63 60 74 84 88 83 74 73 63 52 46 40 37 25 14 9 12 9 6 8 9 14 12 13
205 207 201 192 187 187 178 177 170 166 161 163 160 154 152 155 156 150 143 148 144 129 117 109 111 112 103 91 73 59 49 35 25 14 13 19 16 12 14 21 26 24 19
213 206 198 191 194 190 186 183 181 183 180 171 164 167 164 167 168 162 164 164 163 151 146 144 139 122 110 97 83 74 60 36 19 18 17 21 28 25 24 28 30 32 30
215 206 195 196 194 189 193 192 190 187 178 169 174 175 174 171 166 166 165 166 167 160 144 137 129 111 96 81 65 54 52 37 31 29 26 25 35 36 28 26 28 32 34
213 205 200 195 194 194 195 194 191 183 174 181 184 178 177 175 172 168 163 164 166 152 138 131 117 111 111 113 94 70 58 37 46 52 38 31 37 42 44 41 34 29 33
207 203 198 192 194 197 197 192 190 182 183 186 183 180 181 179 171 162 159 165 157 152 153 149 140 135 119 94 67 52 56 59 59 60 46 39 41 42 43 42 34 32 32
206 201 195 190 193 195 194 188 186 181 188 185 178 181 182 179 170 163 163 161 156 156 165 157 139 144 113 73 58 54 52 55 58 57 57 53 49 48 38 27 28 28 26
204 200 194 191 192 185 180 174 170 175 185 175 182 186 182 179 171 163 162 159 158 158 172 167 139 96 81 55 61 66 58 65 55 58 74 66 56 53 43 38 33 27 27
195 193 192 189 184 173 175 174 179 192 186 188 191 188 183 178 174 170 165 163 166 172 176 165 130 116 76 45 85 65 48 59 50 42 47 48 49 41 41 38 33 30 20
203 195 188 188 181 182 184 184 185 179 185 188 183 183 180 175 174 175 174 176 174 171 171 173 156 139 122 72 114 109 72 31 41 38 51 56 41 30 30 24 22 19 18
222 204 195 188 183 181 176 164 118 103 95 134 172 185 185 182 180 179 178 176 177 178 180 181 171 163 144 99 101 138 148 191 269 296 308 31 36 27 18 6 15 13 26
229 206 193 178 178 180 173 174 177 181 185 193 189 190 188 187 181 178 176 175 176 176 174 173 175 178 142 145 119 71 92 137 154 184 302 334 2 14 355 331 333 350 69
239 181 171 163 167 180 185 185 184 192 182 156 162 170 175 181 181 179 176 173 175 175 172 169 176 178 166 158 156 145 95 60 82 136 218 319 345 339 330 320 323 342 22
352 64 149 156 161 172 188 197 197 195 168 157 164 168 168 174 180 184 178 179 178 175 173 175 175 179 180 166 162 164 160 161 175 160 177 234 283 303 317 325 336 22 60